CFG7MB EDDF-OLBA

Flight info

Callsign CFG7MB
Flight time 3h 21m
Altitude 35000
Route CINDY8S/18 CINDY Z74 LAMPU DCT NOMBO Y161 MAH DCT LATLO DCT OBEDI DCT MOSAV DCT SOSEK/N0472F370 DCT NISVA L614 ADORU UN739 TUMER UT38 KETEK UR55 MUT UB545 VESAR L620 BALMA
Aircraft A346/H-SDE2E3FGHIJ3J4J5M1RWXY/LB1D1

Departure

Time 2026-05-05 09:06
Airport Frankfurt Main Airport (EDDF)

Arrival

Time 2026-05-05 12:28
Airport Beirut Rafic Hariri International Airport (OLBA)
Time Latitude Longitude Altitude Speed Heading
2026-05-05 07:56 50.03418 8.58728 366 ft 0 kts 295°
2026-05-05 08:42 50.03413 8.58743 368 ft 4 kts 295°
2026-05-05 08:43 50.03403 8.58779 373 ft 2 kts 295°
2026-05-05 08:43 50.03392 8.58807 370 ft 4 kts 314°
2026-05-05 08:43 50.03376 8.58823 373 ft 4 kts 349°
2026-05-05 08:43 50.03356 8.58821 366 ft 4 kts 21°
2026-05-05 08:44 50.03358 8.58823 367 ft 4 kts 24°
2026-05-05 08:44 50.03383 8.58840 373 ft 4 kts 24°
2026-05-05 08:44 50.03407 8.58857 374 ft 4 kts 24°
2026-05-05 08:44 50.03424 8.58868 371 ft 0 kts 24°
2026-05-05 08:45 50.03424 8.58869 371 ft 0 kts 24°
2026-05-05 08:52 50.03427 8.58870 371 ft 1 kts 24°
2026-05-05 08:52 50.03444 8.58882 372 ft 4 kts 24°
2026-05-05 08:52 50.03479 8.58906 372 ft 7 kts 24°
2026-05-05 08:52 50.03535 8.58939 369 ft 10 kts 13°
2026-05-05 08:53 50.03620 8.58939 372 ft 14 kts 348°
2026-05-05 08:53 50.03690 8.58896 372 ft 6 kts 333°
2026-05-05 08:53 50.03729 8.58849 375 ft 8 kts 306°
2026-05-05 08:53 50.03737 8.58749 369 ft 11 kts 259°
2026-05-05 08:54 50.03712 8.58612 371 ft 15 kts 251°
2026-05-05 08:54 50.03672 8.58445 370 ft 18 kts 249°
2026-05-05 08:54 50.03625 8.58244 368 ft 21 kts 250°
2026-05-05 08:54 50.03569 8.58017 371 ft 23 kts 249°
2026-05-05 08:55 50.03511 8.57776 371 ft 23 kts 249°
2026-05-05 08:55 50.03452 8.57529 364 ft 25 kts 249°
2026-05-05 08:55 50.03390 8.57262 368 ft 27 kts 251°
2026-05-05 08:55 50.03324 8.56982 365 ft 27 kts 248°
2026-05-05 08:56 50.03257 8.56713 362 ft 28 kts 250°
2026-05-05 08:56 50.03186 8.56428 361 ft 29 kts 251°
2026-05-05 08:56 50.03119 8.56135 357 ft 29 kts 250°
2026-05-05 08:56 50.03050 8.55845 355 ft 24 kts 249°
2026-05-05 08:57 50.02992 8.55610 359 ft 24 kts 248°
2026-05-05 08:57 50.02932 8.55355 357 ft 26 kts 250°
2026-05-05 08:57 50.02883 8.55150 354 ft 14 kts 249°
2026-05-05 08:57 50.02849 8.55008 358 ft 13 kts 250°
2026-05-05 08:58 50.02839 8.54886 351 ft 13 kts 288°
2026-05-05 08:58 50.02900 8.54775 354 ft 12 kts 315°
2026-05-05 08:58 50.02940 8.54715 352 ft 7 kts 319°
2026-05-05 08:58 50.03002 8.54661 352 ft 13 kts 338°
2026-05-05 08:59 50.03091 8.54615 352 ft 14 kts 337°
2026-05-05 08:59 50.03166 8.54567 352 ft 8 kts 338°
2026-05-05 08:59 50.03229 8.54529 355 ft 12 kts 339°
2026-05-05 08:59 50.03310 8.54482 352 ft 9 kts 339°
2026-05-05 09:00 50.03356 8.54455 355 ft 5 kts 339°
2026-05-05 09:00 50.03361 8.54453 354 ft 0 kts 339°
2026-05-05 09:01 50.03364 8.54451 350 ft 1 kts 339°
2026-05-05 09:01 50.03445 8.54405 358 ft 14 kts 340°
2026-05-05 09:01 50.03544 8.54349 354 ft 16 kts 339°
2026-05-05 09:02 50.03629 8.54329 353 ft 12 kts 17°
2026-05-05 09:02 50.03711 8.54363 357 ft 12 kts 355°
2026-05-05 09:02 50.03785 8.54316 357 ft 11 kts 307°
2026-05-05 09:02 50.03789 8.54188 360 ft 14 kts 254°
2026-05-05 09:03 50.03756 8.54036 360 ft 16 kts 250°
2026-05-05 09:03 50.03713 8.53855 356 ft 19 kts 249°
2026-05-05 09:03 50.03663 8.53649 358 ft 22 kts 249°
2026-05-05 09:03 50.03604 8.53415 356 ft 24 kts 249°
2026-05-05 09:04 50.03550 8.53190 351 ft 19 kts 250°
2026-05-05 09:04 50.03506 8.53007 355 ft 19 kts 249°
2026-05-05 09:04 50.03455 8.52810 349 ft 13 kts 247°
2026-05-05 09:04 50.03424 8.52695 352 ft 12 kts 246°
2026-05-05 09:05 50.03360 8.52607 354 ft 14 kts 195°
2026-05-05 09:05 50.03308 8.52597 351 ft 0 kts 183°
2026-05-05 09:05 50.03285 8.52596 352 ft 20 kts 181°
2026-05-05 09:05 50.02910 8.52598 354 ft 86 kts 179°
2026-05-05 09:06 50.02109 8.52609 351 ft 143 kts 179°
2026-05-05 09:06 50.00951 8.52622 372 ft 185 kts 180°
2026-05-05 09:06 49.99663 8.52626 1002 ft 184 kts 180°
2026-05-05 09:06 49.98379 8.52621 1679 ft 186 kts 180°
2026-05-05 09:07 49.97084 8.52821 2304 ft 190 kts 158°
2026-05-05 09:07 49.96032 8.54130 2733 ft 204 kts 124°
2026-05-05 09:07 49.95299 8.56122 3120 ft 219 kts 119°
2026-05-05 09:07 49.94573 8.58263 3472 ft 233 kts 116°
2026-05-05 09:08 49.94058 8.60667 3906 ft 238 kts 101°
2026-05-05 09:08 49.93889 8.63312 4425 ft 252 kts 94°
2026-05-05 09:08 49.93807 8.66122 4861 ft 268 kts 94°
2026-05-05 09:08 49.93469 8.69025 5483 ft 272 kts 117°
2026-05-05 09:09 49.92766 8.70646 6034 ft 269 kts 137°
2026-05-05 09:09 49.91298 8.72411 6919 ft 267 kts 147°
2026-05-05 09:09 49.89754 8.74059 7694 ft 272 kts 144°
2026-05-05 09:09 49.87969 8.76869 8730 ft 281 kts 127°
2026-05-05 09:10 49.87258 8.78607 9283 ft 284 kts 122°
2026-05-05 09:10 49.86281 8.81298 10107 ft 288 kts 121°
2026-05-05 09:10 49.85296 8.84078 10680 ft 301 kts 121°
2026-05-05 09:10 49.84264 8.86969 11108 ft 319 kts 121°
2026-05-05 09:11 49.83150 8.90065 11493 ft 337 kts 121°
2026-05-05 09:11 49.81970 8.93325 11890 ft 356 kts 121°
2026-05-05 09:11 49.80722 8.96758 12258 ft 374 kts 121°
2026-05-05 09:11 49.79420 9.00332 12749 ft 387 kts 121°
2026-05-05 09:12 49.78087 9.03993 13535 ft 391 kts 121°
2026-05-05 09:12 49.76847 9.07780 14287 ft 396 kts 116°
2026-05-05 09:12 49.75833 9.11788 15018 ft 402 kts 111°
2026-05-05 09:12 49.74900 9.15885 15806 ft 403 kts 114°
2026-05-05 09:13 49.73680 9.19802 16550 ft 403 kts 123°
2026-05-05 09:13 49.72087 9.23305 17295 ft 403 kts 131°
2026-05-05 09:13 49.70272 9.26617 18094 ft 404 kts 134°
2026-05-05 09:13 49.68408 9.29898 18749 ft 408 kts 134°
2026-05-05 09:14 49.66521 9.33197 19338 ft 413 kts 134°
2026-05-05 09:14 49.64606 9.36554 19919 ft 417 kts 134°
2026-05-05 09:14 49.62551 9.39760 20501 ft 420 kts 140°
2026-05-05 09:14 49.60283 9.42641 21079 ft 423 kts 145°
2026-05-05 09:15 49.57816 9.45167 21635 ft 427 kts 150°
2026-05-05 09:15 49.55259 9.47527 22215 ft 431 kts 152°
2026-05-05 09:15 49.52661 9.49882 22815 ft 435 kts 152°
2026-05-05 09:15 49.50035 9.52253 23378 ft 439 kts 152°
2026-05-05 09:16 49.47392 9.54646 23857 ft 444 kts 152°
2026-05-05 09:16 49.44756 9.57041 24338 ft 447 kts 152°
2026-05-05 09:16 49.42070 9.59483 24865 ft 449 kts 152°
2026-05-05 09:16 49.39378 9.61930 25376 ft 452 kts 152°
2026-05-05 09:17 49.36683 9.64476 25884 ft 455 kts 149°
2026-05-05 09:17 49.34092 9.67322 26346 ft 459 kts 145°
2026-05-05 09:17 49.31627 9.70489 26816 ft 463 kts 141°
2026-05-05 09:17 49.29300 9.73926 27314 ft 467 kts 138°
2026-05-05 09:18 49.27005 9.77437 27767 ft 469 kts 138°
2026-05-05 09:18 49.24693 9.80986 28178 ft 473 kts 138°
2026-05-05 09:18 49.22353 9.84572 28697 ft 474 kts 138°
2026-05-05 09:18 49.20042 9.88098 29381 ft 472 kts 138°
2026-05-05 09:19 49.17719 9.91634 30086 ft 469 kts 139°
2026-05-05 09:19 49.15413 9.95135 30686 ft 467 kts 139°
2026-05-05 09:19 49.13104 9.98634 31261 ft 465 kts 139°
2026-05-05 09:19 49.10808 10.02106 31834 ft 464 kts 140°
2026-05-05 09:20 49.08517 10.05563 32392 ft 462 kts 140°
2026-05-05 09:20 49.06237 10.09000 33013 ft 458 kts 141°
2026-05-05 09:20 49.03958 10.12306 33640 ft 454 kts 142°
2026-05-05 09:20 49.01638 10.15567 34101 ft 453 kts 143°
2026-05-05 09:21 48.99303 10.18825 34374 ft 456 kts 142°
2026-05-05 09:21 48.96950 10.22117 34637 ft 460 kts 142°
2026-05-05 09:21 48.94596 10.25427 34863 ft 462 kts 142°
2026-05-05 09:22 48.89867 10.32108 34875 ft 463 kts 142°
2026-05-05 09:22 48.85132 10.38781 34871 ft 463 kts 142°
2026-05-05 09:23 48.80542 10.45707 34870 ft 465 kts 138°
2026-05-05 09:23 48.76121 10.52796 34840 ft 465 kts 138°
2026-05-05 09:24 48.71643 10.59942 34863 ft 469 kts 138°
2026-05-05 09:24 48.67142 10.67112 34857 ft 469 kts 138°
2026-05-05 09:25 48.62627 10.74284 34859 ft 469 kts 138°
2026-05-05 09:25 48.58147 10.81383 34855 ft 469 kts 138°
2026-05-05 09:26 48.53668 10.88551 34830 ft 467 kts 138°
2026-05-05 09:26 48.49176 10.95725 34854 ft 471 kts 138°
2026-05-05 09:27 48.44623 11.02862 34856 ft 471 kts 139°
2026-05-05 09:27 48.40058 11.09955 34856 ft 471 kts 139°
2026-05-05 09:28 48.35515 11.17003 34856 ft 471 kts 139°
2026-05-05 09:28 48.30943 11.24116 34833 ft 472 kts 137°
2026-05-05 09:29 48.26679 11.31736 34870 ft 478 kts 131°
2026-05-05 09:29 48.22964 11.40035 34875 ft 482 kts 124°
2026-05-05 09:30 48.19646 11.48788 34872 ft 482 kts 123°
2026-05-05 09:30 48.16332 11.57554 34872 ft 482 kts 123°
2026-05-05 09:31 48.12997 11.66303 34852 ft 483 kts 123°
2026-05-05 09:31 48.09652 11.75058 34849 ft 484 kts 123°
2026-05-05 09:32 48.06285 11.83839 34849 ft 483 kts 123°
2026-05-05 09:32 48.02948 11.92508 34852 ft 483 kts 123°
2026-05-05 09:33 47.99588 12.01201 34834 ft 482 kts 123°
2026-05-05 09:33 47.96221 12.09890 34836 ft 482 kts 123°
2026-05-05 09:34 47.92855 12.18554 34840 ft 482 kts 123°
2026-05-05 09:34 47.89504 12.27148 34838 ft 482 kts 123°
2026-05-05 09:35 47.86120 12.35796 34839 ft 482 kts 123°
2026-05-05 09:35 47.81035 12.48741 34834 ft 481 kts 123°
2026-05-05 09:36 47.77649 12.57325 34839 ft 482 kts 123°
2026-05-05 09:36 47.74248 12.65919 34846 ft 481 kts 123°
2026-05-05 09:37 47.70771 12.74459 34843 ft 481 kts 126°
2026-05-05 09:37 47.66808 12.82434 34851 ft 478 kts 133°
2026-05-05 09:38 47.62322 12.89649 34849 ft 476 kts 138°
2026-05-05 09:38 47.57624 12.96566 34847 ft 476 kts 138°
2026-05-05 09:39 47.52925 13.03485 34851 ft 476 kts 138°
2026-05-05 09:39 47.48211 13.10413 34839 ft 478 kts 138°
2026-05-05 09:40 47.43490 13.17340 34862 ft 478 kts 138°
2026-05-05 09:40 47.38786 13.24223 34863 ft 478 kts 138°
2026-05-05 09:41 47.34141 13.31294 34876 ft 479 kts 134°
2026-05-05 09:41 47.29974 13.39022 34877 ft 482 kts 128°
2026-05-05 09:42 47.26181 13.47224 34887 ft 484 kts 127°
2026-05-05 09:42 47.22390 13.55448 34898 ft 484 kts 127°
2026-05-05 09:43 47.18591 13.63650 34896 ft 484 kts 127°
2026-05-05 09:43 47.14786 13.71823 34904 ft 483 kts 127°
2026-05-05 09:44 47.11011 13.79908 34923 ft 483 kts 127°
2026-05-05 09:44 47.07198 13.88042 34925 ft 483 kts 127°
2026-05-05 09:45 47.03371 13.96178 34924 ft 483 kts 127°
2026-05-05 09:45 46.99557 14.04291 34929 ft 483 kts 128°
2026-05-05 09:46 46.95741 14.12359 34927 ft 484 kts 128°
2026-05-05 09:46 46.91903 14.20454 34939 ft 484 kts 128°
2026-05-05 09:47 46.88064 14.28537 34948 ft 481 kts 128°
2026-05-05 09:47 46.84239 14.36562 34955 ft 481 kts 128°
2026-05-05 09:48 46.80398 14.44589 34952 ft 483 kts 128°
2026-05-05 09:48 46.76522 14.52670 34964 ft 484 kts 128°
2026-05-05 09:49 46.72672 14.60681 34963 ft 485 kts 128°
2026-05-05 09:49 46.68780 14.68752 34977 ft 489 kts 128°
2026-05-05 09:50 46.66820 14.72805 35309 ft 489 kts 128°
2026-05-05 09:50 46.64862 14.76848 35810 ft 486 kts 128°
2026-05-05 09:50 46.62912 14.80870 36220 ft 485 kts 128°
2026-05-05 09:50 46.60962 14.84889 36546 ft 485 kts 128°
2026-05-05 09:51 46.59010 14.88906 36850 ft 485 kts 128°
2026-05-05 09:51 46.57055 14.92924 36965 ft 486 kts 128°
2026-05-05 09:51 46.53147 15.00934 36962 ft 485 kts 128°
2026-05-05 09:52 46.49255 15.08888 36952 ft 486 kts 128°
2026-05-05 09:52 46.45323 15.16891 36964 ft 487 kts 128°
2026-05-05 09:53 46.41382 15.24902 36964 ft 488 kts 128°
2026-05-05 09:53 46.37434 15.32901 36967 ft 487 kts 128°
2026-05-05 09:54 46.33465 15.40924 36954 ft 487 kts 128°
2026-05-05 09:54 46.29518 15.48878 36961 ft 487 kts 128°
2026-05-05 09:55 46.25563 15.56833 36976 ft 487 kts 128°
2026-05-05 09:55 46.21591 15.64795 36984 ft 487 kts 128°
2026-05-05 09:56 46.17639 15.72689 36994 ft 487 kts 128°
2026-05-05 09:56 46.13653 15.80627 36998 ft 487 kts 128°
2026-05-05 09:57 46.09666 15.88546 37001 ft 487 kts 128°
2026-05-05 09:57 46.06350 15.95116 37001 ft 487 kts 128°
2026-05-05 09:58 46.02365 16.03001 36999 ft 486 kts 128°
2026-05-05 09:58 45.98359 16.10886 37017 ft 488 kts 128°
2026-05-05 09:59 45.94369 16.18725 37019 ft 488 kts 128°
2026-05-05 09:59 45.90353 16.26597 37019 ft 488 kts 128°
2026-05-05 10:00 45.86322 16.34474 37018 ft 488 kts 128°
2026-05-05 10:00 45.82281 16.42337 37015 ft 489 kts 128°
2026-05-05 10:01 45.78240 16.50195 37013 ft 489 kts 128°
2026-05-05 10:01 45.74188 16.58057 36996 ft 490 kts 129°
2026-05-05 10:02 45.70145 16.65869 37000 ft 490 kts 129°
2026-05-05 10:02 45.66068 16.73709 37002 ft 490 kts 128°
2026-05-05 10:03 45.61991 16.81547 36997 ft 490 kts 128°
2026-05-05 10:03 45.57908 16.89370 37002 ft 490 kts 128°
2026-05-05 10:04 45.54135 16.97434 37001 ft 492 kts 122°
2026-05-05 10:04 45.50664 17.05855 36997 ft 493 kts 122°
2026-05-05 10:05 45.47185 17.14298 36998 ft 493 kts 122°
2026-05-05 10:05 45.43693 17.22726 37005 ft 493 kts 122°
2026-05-05 10:06 45.40215 17.31085 37010 ft 493 kts 122°
2026-05-05 10:06 45.36701 17.39496 37007 ft 494 kts 122°
2026-05-05 10:07 45.33184 17.47897 37008 ft 494 kts 122°
2026-05-05 10:07 45.29652 17.56305 37008 ft 494 kts 122°
2026-05-05 10:08 45.26133 17.64656 37000 ft 494 kts 122°
2026-05-05 10:08 45.22594 17.73027 37009 ft 494 kts 122°
2026-05-05 10:09 45.19038 17.81418 37011 ft 494 kts 122°
2026-05-05 10:09 45.15488 17.89771 37013 ft 494 kts 122°
2026-05-05 10:10 45.11915 17.98147 37010 ft 496 kts 122°
2026-05-05 10:10 45.08350 18.06482 37012 ft 496 kts 122°
2026-05-05 10:11 45.04781 18.14804 37011 ft 496 kts 122°
2026-05-05 10:11 45.01189 18.23157 37018 ft 496 kts 122°
2026-05-05 10:12 44.97587 18.31499 37012 ft 496 kts 122°
2026-05-05 10:12 44.93984 18.39827 37020 ft 497 kts 122°
2026-05-05 10:13 44.90393 18.48105 37015 ft 497 kts 122°
2026-05-05 10:13 44.86771 18.56427 37016 ft 497 kts 122°
2026-05-05 10:14 44.83149 18.64719 37019 ft 496 kts 122°
2026-05-05 10:14 44.79516 18.73019 37017 ft 497 kts 122°
2026-05-05 10:15 44.75869 18.81327 37021 ft 498 kts 122°
2026-05-05 10:15 44.72220 18.89613 37022 ft 498 kts 122°
2026-05-05 10:16 44.68559 18.97904 37025 ft 498 kts 122°
2026-05-05 10:16 44.64910 19.06140 37024 ft 498 kts 122°
2026-05-05 10:17 44.61256 19.14367 37023 ft 498 kts 122°
2026-05-05 10:17 44.57575 19.22627 37021 ft 498 kts 122°
2026-05-05 10:18 44.53893 19.30868 37027 ft 498 kts 122°
2026-05-05 10:18 44.50199 19.39114 37027 ft 498 kts 122°
2026-05-05 10:19 44.46494 19.47361 37029 ft 499 kts 122°
2026-05-05 10:19 44.42782 19.55593 37029 ft 500 kts 122°
2026-05-05 10:20 44.39082 19.63781 37028 ft 500 kts 122°
2026-05-05 10:20 44.35345 19.72028 37029 ft 500 kts 122°
2026-05-05 10:21 44.31608 19.80250 37036 ft 500 kts 122°
2026-05-05 10:21 44.27868 19.88450 37032 ft 500 kts 122°
2026-05-05 10:22 44.24144 19.96601 37040 ft 500 kts 122°
2026-05-05 10:22 44.20388 20.04795 37040 ft 500 kts 122°
2026-05-05 10:23 44.16630 20.12966 37046 ft 501 kts 122°
2026-05-05 10:23 44.12873 20.21118 37040 ft 502 kts 122°
2026-05-05 10:24 44.09084 20.29316 37047 ft 502 kts 122°
2026-05-05 10:24 44.05294 20.37490 37047 ft 502 kts 122°
2026-05-05 10:25 44.01493 20.45659 37053 ft 502 kts 122°
2026-05-05 10:25 43.97698 20.53802 37052 ft 502 kts 122°
2026-05-05 10:26 43.93897 20.61933 37052 ft 502 kts 122°
2026-05-05 10:26 43.90108 20.70010 37058 ft 502 kts 122°
2026-05-05 10:27 43.86297 20.78115 37054 ft 501 kts 122°
2026-05-05 10:27 43.82473 20.86225 37045 ft 502 kts 122°
2026-05-05 10:28 43.78639 20.94336 37052 ft 503 kts 122°
2026-05-05 10:28 43.75031 21.02643 37060 ft 502 kts 119°
2026-05-05 10:29 43.71484 21.10984 37055 ft 502 kts 119°
2026-05-05 10:29 43.67951 21.19262 37055 ft 502 kts 119°
2026-05-05 10:30 43.64387 21.27574 37074 ft 502 kts 119°
2026-05-05 10:30 43.60818 21.35869 37063 ft 501 kts 119°
2026-05-05 10:31 43.57246 21.44154 37063 ft 501 kts 119°
2026-05-05 10:31 43.53672 21.52420 37058 ft 501 kts 119°
2026-05-05 10:32 43.50106 21.60634 37073 ft 501 kts 119°
2026-05-05 10:32 43.46519 21.68884 37071 ft 502 kts 119°
2026-05-05 10:33 43.42920 21.77138 37075 ft 502 kts 119°
2026-05-05 10:33 43.39314 21.85378 37079 ft 502 kts 119°
2026-05-05 10:34 43.35698 21.93621 37075 ft 502 kts 119°
2026-05-05 10:34 43.32108 22.01779 37078 ft 502 kts 119°
2026-05-05 10:35 43.28487 22.09986 37076 ft 502 kts 120°
2026-05-05 10:35 43.24854 22.18197 37074 ft 503 kts 120°
2026-05-05 10:36 43.21210 22.26408 37071 ft 503 kts 120°
2026-05-05 10:36 43.17558 22.34615 37074 ft 503 kts 120°
2026-05-05 10:37 43.13905 22.42801 37086 ft 503 kts 120°
2026-05-05 10:37 43.10262 22.50939 37076 ft 503 kts 120°
2026-05-05 10:38 43.06590 22.59123 37075 ft 504 kts 120°
2026-05-05 10:38 43.02906 22.67307 37072 ft 504 kts 120°
2026-05-05 10:39 42.99261 22.75429 37076 ft 503 kts 118°
2026-05-05 10:39 42.96063 22.83914 37077 ft 500 kts 111°
2026-05-05 10:40 42.93425 22.92703 37075 ft 499 kts 109°
2026-05-05 10:40 42.90832 23.01512 37088 ft 499 kts 109°
2026-05-05 10:41 42.88223 23.10305 37080 ft 499 kts 109°
2026-05-05 10:41 42.85619 23.19029 37079 ft 499 kts 109°
2026-05-05 10:42 42.81674 23.32172 37094 ft 498 kts 109°
2026-05-05 10:43 42.79038 23.40919 37080 ft 498 kts 109°
2026-05-05 10:43 42.76397 23.49656 37083 ft 498 kts 110°
2026-05-05 10:44 42.73747 23.58390 37081 ft 498 kts 110°
2026-05-05 10:44 42.71090 23.67113 37085 ft 498 kts 110°
2026-05-05 10:45 42.68446 23.75761 37082 ft 498 kts 110°
2026-05-05 10:45 42.65861 23.84517 37076 ft 497 kts 108°
2026-05-05 10:46 42.63840 23.91897 37089 ft 497 kts 108°
2026-05-05 10:46 42.61443 24.00637 37072 ft 496 kts 108°
2026-05-05 10:47 42.59017 24.09428 37064 ft 496 kts 108°
2026-05-05 10:47 42.56589 24.18198 37067 ft 496 kts 108°
2026-05-05 10:48 42.54149 24.26967 37069 ft 496 kts 108°
2026-05-05 10:48 42.51703 24.35724 37061 ft 496 kts 108°
2026-05-05 10:49 42.49265 24.44427 37057 ft 496 kts 108°
2026-05-05 10:49 42.46805 24.53174 37075 ft 496 kts 108°
2026-05-05 10:50 42.44342 24.61904 37060 ft 495 kts 108°
2026-05-05 10:50 42.41868 24.70634 37056 ft 495 kts 108°
2026-05-05 10:51 42.39389 24.79357 37050 ft 495 kts 108°
2026-05-05 10:51 42.36903 24.88071 37050 ft 495 kts 108°
2026-05-05 10:52 42.34428 24.96719 37039 ft 495 kts 108°
2026-05-05 10:52 42.31934 25.05402 37039 ft 495 kts 108°
2026-05-05 10:53 42.29425 25.14107 37054 ft 496 kts 108°
2026-05-05 10:53 42.26911 25.22800 37039 ft 496 kts 108°
2026-05-05 10:54 42.24389 25.31492 37035 ft 496 kts 109°
2026-05-05 10:54 42.21857 25.40184 37038 ft 496 kts 109°
2026-05-05 10:55 42.19334 25.48813 37049 ft 497 kts 109°
2026-05-05 10:55 42.16785 25.57527 37047 ft 497 kts 109°
2026-05-05 10:56 42.14246 25.66212 37046 ft 497 kts 109°
2026-05-05 10:56 42.11697 25.74890 37051 ft 497 kts 109°
2026-05-05 10:57 42.09158 25.83504 37043 ft 497 kts 109°
2026-05-05 10:57 42.06595 25.92158 37050 ft 497 kts 109°
2026-05-05 10:58 42.04029 26.00801 37050 ft 497 kts 109°
2026-05-05 10:58 42.01450 26.09463 37057 ft 497 kts 109°
2026-05-05 10:59 41.98885 26.18037 37057 ft 496 kts 109°
2026-05-05 10:59 41.96297 26.26667 37065 ft 496 kts 109°
2026-05-05 11:00 41.93703 26.35283 37073 ft 496 kts 110°
2026-05-05 11:00 41.91097 26.43881 37065 ft 496 kts 111°
2026-05-05 11:01 41.87816 26.52080 37064 ft 500 kts 122°
2026-05-05 11:01 41.83450 26.59365 37065 ft 502 kts 133°
2026-05-05 11:02 41.78156 26.65458 37063 ft 502 kts 143°
2026-05-05 11:02 41.72427 26.70834 37061 ft 503 kts 144°
2026-05-05 11:03 41.66687 26.76179 37058 ft 503 kts 144°
2026-05-05 11:03 41.60992 26.81522 37057 ft 503 kts 144°
2026-05-05 11:04 41.55262 26.86904 37057 ft 503 kts 144°
2026-05-05 11:04 41.49519 26.92286 37061 ft 503 kts 144°
2026-05-05 11:05 41.43788 26.97645 37061 ft 503 kts 144°
2026-05-05 11:05 41.38087 27.02959 37058 ft 503 kts 144°
2026-05-05 11:06 41.32346 27.08296 37059 ft 503 kts 144°
2026-05-05 11:06 41.26604 27.13620 37056 ft 503 kts 144°
2026-05-05 11:07 41.20854 27.18938 37067 ft 503 kts 144°
2026-05-05 11:07 41.15107 27.24248 37061 ft 503 kts 144°
2026-05-05 11:08 41.09360 27.29545 37064 ft 503 kts 144°
2026-05-05 11:08 41.03596 27.34843 37058 ft 503 kts 144°
2026-05-05 11:09 40.97834 27.40126 37071 ft 504 kts 145°
2026-05-05 11:09 40.92101 27.45404 37071 ft 505 kts 144°
2026-05-05 11:10 40.86354 27.50762 37077 ft 504 kts 144°
2026-05-05 11:10 40.80618 27.56099 37075 ft 504 kts 144°
2026-05-05 11:11 40.74873 27.61427 37079 ft 504 kts 144°
2026-05-05 11:11 40.69121 27.66744 37081 ft 504 kts 144°
2026-05-05 11:12 40.63391 27.72027 37083 ft 504 kts 144°
2026-05-05 11:12 40.57635 27.77325 37088 ft 504 kts 144°
2026-05-05 11:13 40.51870 27.82619 37088 ft 505 kts 144°
2026-05-05 11:13 40.46099 27.87907 37091 ft 505 kts 144°
2026-05-05 11:14 40.40371 27.93144 37092 ft 505 kts 144°
2026-05-05 11:14 40.34600 27.98408 37088 ft 505 kts 144°
2026-05-05 11:15 40.28830 28.03662 37089 ft 505 kts 145°
2026-05-05 11:15 40.23047 28.08919 37088 ft 505 kts 145°
2026-05-05 11:16 40.17265 28.14161 37087 ft 505 kts 145°
2026-05-05 11:16 40.11475 28.19397 37085 ft 505 kts 145°
2026-05-05 11:17 40.05729 28.24585 37086 ft 505 kts 145°
2026-05-05 11:17 39.99938 28.29803 37077 ft 505 kts 145°
2026-05-05 11:18 39.94135 28.35021 37080 ft 506 kts 145°
2026-05-05 11:18 39.88326 28.40232 37082 ft 505 kts 145°
2026-05-05 11:19 39.82573 28.45382 37072 ft 504 kts 145°
2026-05-05 11:19 39.76781 28.50556 37070 ft 504 kts 145°
2026-05-05 11:20 39.70986 28.55725 37070 ft 505 kts 146°
2026-05-05 11:20 39.65169 28.60899 37072 ft 506 kts 146°
2026-05-05 11:21 39.59356 28.66061 37067 ft 506 kts 146°
2026-05-05 11:21 39.53581 28.71176 37063 ft 505 kts 146°
2026-05-05 11:22 39.47779 28.76308 37060 ft 505 kts 146°
2026-05-05 11:22 39.41957 28.81446 37067 ft 507 kts 146°
2026-05-05 11:23 39.36098 28.86604 37065 ft 507 kts 146°
2026-05-05 11:23 39.30272 28.91723 37058 ft 506 kts 146°
2026-05-05 11:24 39.24478 28.96805 37067 ft 507 kts 146°
2026-05-05 11:24 39.18623 29.01931 37049 ft 509 kts 146°
2026-05-05 11:25 39.12749 29.07059 37057 ft 509 kts 146°
2026-05-05 11:25 39.06873 29.12180 37054 ft 509 kts 146°
2026-05-05 11:26 39.00998 29.17290 37050 ft 509 kts 146°
2026-05-05 11:26 38.95112 29.22398 37049 ft 509 kts 146°
2026-05-05 11:27 38.89260 29.27466 37051 ft 510 kts 146°
2026-05-05 11:27 38.83364 29.32562 37048 ft 511 kts 146°
2026-05-05 11:28 38.77464 29.37650 37048 ft 511 kts 146°
2026-05-05 11:28 38.71668 29.42937 37048 ft 510 kts 141°
2026-05-05 11:29 38.66380 29.48941 37033 ft 511 kts 134°
2026-05-05 11:29 38.61634 29.55722 37043 ft 511 kts 127°
2026-05-05 11:30 38.57409 29.63053 37034 ft 512 kts 124°
2026-05-05 11:30 38.53236 29.70456 37030 ft 512 kts 124°
2026-05-05 11:31 38.49043 29.77837 37032 ft 512 kts 124°
2026-05-05 11:31 38.44863 29.85153 37035 ft 513 kts 124°
2026-05-05 11:32 38.40641 29.92525 37023 ft 514 kts 124°
2026-05-05 11:32 38.36440 29.99844 37029 ft 514 kts 124°
2026-05-05 11:33 38.32209 30.07193 37034 ft 514 kts 124°
2026-05-05 11:33 38.27967 30.14547 37037 ft 516 kts 124°
2026-05-05 11:34 38.24408 30.20719 37030 ft 516 kts 124°
2026-05-05 11:34 38.20174 30.28048 37029 ft 516 kts 124°
2026-05-05 11:35 38.15893 30.35430 37029 ft 516 kts 124°
2026-05-05 11:35 38.11621 30.42776 37038 ft 517 kts 124°
2026-05-05 11:36 38.07348 30.50109 37020 ft 517 kts 124°
2026-05-05 11:36 38.03080 30.57416 37023 ft 518 kts 124°
2026-05-05 11:37 37.98783 30.64753 37021 ft 518 kts 124°
2026-05-05 11:37 37.94485 30.72102 37029 ft 518 kts 124°
2026-05-05 11:38 37.90189 30.79451 37005 ft 518 kts 125°
2026-05-05 11:38 37.85882 30.86789 37009 ft 518 kts 125°
2026-05-05 11:39 37.81594 30.94075 37008 ft 518 kts 125°
2026-05-05 11:39 37.77272 31.01402 37016 ft 519 kts 125°
2026-05-05 11:40 37.72942 31.08728 36998 ft 519 kts 125°
2026-05-05 11:40 37.68617 31.16031 36999 ft 519 kts 125°
2026-05-05 11:41 37.64283 31.23328 36996 ft 519 kts 125°
2026-05-05 11:41 37.59961 31.30593 37010 ft 521 kts 125°
2026-05-05 11:42 37.55595 31.37913 36998 ft 521 kts 125°
2026-05-05 11:42 37.51225 31.45226 36988 ft 521 kts 125°
2026-05-05 11:43 37.47240 31.51879 36999 ft 522 kts 125°
2026-05-05 11:43 37.42976 31.58980 37004 ft 523 kts 125°
2026-05-05 11:44 37.38606 31.66242 37008 ft 523 kts 125°
2026-05-05 11:44 37.34200 31.73553 37004 ft 523 kts 125°
2026-05-05 11:45 37.29797 31.80836 37022 ft 523 kts 125°
2026-05-05 11:45 37.25381 31.88116 37011 ft 523 kts 125°
2026-05-05 11:46 37.20961 31.95390 37006 ft 522 kts 126°
2026-05-05 11:46 37.16543 32.02644 37010 ft 522 kts 126°
2026-05-05 11:47 37.12124 32.09881 37014 ft 521 kts 126°
2026-05-05 11:47 37.07705 32.17108 37003 ft 521 kts 126°
2026-05-05 11:48 37.01091 32.27881 37012 ft 521 kts 126°
2026-05-05 11:48 36.96661 32.35068 37015 ft 521 kts 126°
2026-05-05 11:49 36.92563 32.42536 37014 ft 519 kts 117°
2026-05-05 11:49 36.89753 32.50793 37001 ft 514 kts 104°
2026-05-05 11:50 36.88389 32.59471 37001 ft 508 kts 91°
2026-05-05 11:50 36.88107 32.68295 37014 ft 509 kts 88°
2026-05-05 11:51 36.87920 32.77177 37008 ft 510 kts 88°
2026-05-05 11:51 36.87681 32.86050 37002 ft 510 kts 89°
2026-05-05 11:52 36.87414 32.94926 37010 ft 509 kts 89°
2026-05-05 11:52 36.87137 33.03778 37003 ft 509 kts 89°
2026-05-05 11:53 36.86857 33.12617 36998 ft 509 kts 89°
2026-05-05 11:53 36.85844 33.21348 36999 ft 515 kts 105°
2026-05-05 11:54 36.82681 33.29448 36986 ft 519 kts 125°
2026-05-05 11:54 36.77663 33.35922 36991 ft 519 kts 144°
2026-05-05 11:55 36.71603 33.40715 36986 ft 518 kts 150°
2026-05-05 11:55 36.65416 33.45360 36968 ft 520 kts 150°
2026-05-05 11:56 36.59235 33.50060 36954 ft 520 kts 150°
2026-05-05 11:56 36.53063 33.54790 36957 ft 520 kts 150°
2026-05-05 11:57 36.46897 33.59522 36954 ft 520 kts 150°
2026-05-05 11:57 36.40769 33.64224 36942 ft 520 kts 150°
2026-05-05 11:58 36.34592 33.68947 36966 ft 521 kts 150°
2026-05-05 11:58 36.28418 33.73654 36955 ft 520 kts 150°
2026-05-05 11:59 36.22257 33.78346 36958 ft 520 kts 150°
2026-05-05 11:59 36.16089 33.83036 36950 ft 520 kts 151°
2026-05-05 12:00 36.09917 33.87724 36957 ft 524 kts 151°
2026-05-05 12:00 36.03689 33.92440 36968 ft 524 kts 151°
2026-05-05 12:01 35.97469 33.97144 36953 ft 522 kts 151°
2026-05-05 12:01 35.94375 33.99482 36696 ft 519 kts 151°
2026-05-05 12:01 35.91333 34.01776 36430 ft 517 kts 151°
2026-05-05 12:02 35.88255 34.04071 36089 ft 516 kts 152°
2026-05-05 12:02 35.85177 34.06347 35552 ft 516 kts 152°
2026-05-05 12:02 35.82092 34.08619 34928 ft 518 kts 152°
2026-05-05 12:02 35.78976 34.10914 34245 ft 521 kts 152°
2026-05-05 12:03 35.75850 34.13217 33466 ft 526 kts 152°
2026-05-05 12:03 35.72696 34.15540 32686 ft 529 kts 152°
2026-05-05 12:03 35.69526 34.17874 31933 ft 532 kts 152°
2026-05-05 12:03 35.66367 34.20186 31176 ft 535 kts 152°
2026-05-05 12:04 35.63159 34.22526 30422 ft 538 kts 152°
2026-05-05 12:04 35.59926 34.24894 29505 ft 542 kts 153°
2026-05-05 12:04 35.56676 34.27267 28631 ft 543 kts 153°
2026-05-05 12:04 35.53438 34.29620 27981 ft 539 kts 153°
2026-05-05 12:05 35.50221 34.31955 27408 ft 534 kts 153°
2026-05-05 12:05 35.47018 34.34280 26784 ft 530 kts 153°
2026-05-05 12:05 35.43848 34.36578 26177 ft 526 kts 152°
2026-05-05 12:05 35.40704 34.38856 25579 ft 522 kts 152°
2026-05-05 12:06 35.37586 34.41114 25049 ft 517 kts 152°
2026-05-05 12:06 35.34511 34.43339 24566 ft 511 kts 152°
2026-05-05 12:06 35.31461 34.45544 24097 ft 505 kts 152°
2026-05-05 12:06 35.28446 34.47722 23660 ft 499 kts 152°
2026-05-05 12:07 35.25509 34.49849 23167 ft 493 kts 152°
2026-05-05 12:07 35.22575 34.51968 22754 ft 484 kts 152°
2026-05-05 12:07 35.19689 34.54047 22342 ft 477 kts 152°
2026-05-05 12:07 35.16847 34.56089 21923 ft 472 kts 152°
2026-05-05 12:08 35.14018 34.58122 21497 ft 467 kts 152°
2026-05-05 12:08 35.11227 34.60125 21066 ft 462 kts 152°
2026-05-05 12:08 35.08471 34.62103 20641 ft 458 kts 152°
2026-05-05 12:08 35.05760 34.64053 20209 ft 454 kts 153°
2026-05-05 12:09 35.03038 34.66005 19711 ft 452 kts 153°
2026-05-05 12:09 35.00319 34.67949 19238 ft 449 kts 153°
2026-05-05 12:09 34.97647 34.69861 18833 ft 444 kts 152°
2026-05-05 12:09 34.94992 34.71763 18447 ft 440 kts 152°
2026-05-05 12:10 34.92374 34.73638 18045 ft 435 kts 152°
2026-05-05 12:10 34.89777 34.75507 17655 ft 433 kts 153°
2026-05-05 12:10 34.87166 34.77375 17269 ft 434 kts 153°
2026-05-05 12:10 34.84565 34.79232 16873 ft 431 kts 153°
2026-05-05 12:11 34.81981 34.81076 16454 ft 428 kts 153°
2026-05-05 12:11 34.79424 34.82900 16030 ft 425 kts 153°
2026-05-05 12:11 34.76878 34.84719 15601 ft 422 kts 153°
2026-05-05 12:11 34.74334 34.86531 15165 ft 419 kts 153°
2026-05-05 12:12 34.71858 34.88293 14731 ft 415 kts 153°
2026-05-05 12:12 34.69377 34.90057 14317 ft 412 kts 153°
2026-05-05 12:12 34.66907 34.91813 13899 ft 409 kts 153°
2026-05-05 12:12 34.64449 34.93560 13440 ft 406 kts 153°
2026-05-05 12:13 34.62029 34.95279 12994 ft 401 kts 153°
2026-05-05 12:13 34.59632 34.96982 12610 ft 396 kts 153°
2026-05-05 12:13 34.57256 34.98669 12215 ft 391 kts 153°
2026-05-05 12:13 34.54947 35.00309 11826 ft 386 kts 154°
2026-05-05 12:14 34.52644 35.01942 11464 ft 380 kts 154°
2026-05-05 12:14 34.50350 35.03574 11082 ft 375 kts 152°
2026-05-05 12:14 34.48227 35.05330 10767 ft 371 kts 146°
2026-05-05 12:14 34.46283 35.07319 10673 ft 359 kts 141°
2026-05-05 12:15 34.44516 35.09374 10595 ft 344 kts 140°
2026-05-05 12:15 34.42838 35.11369 10466 ft 330 kts 140°
2026-05-05 12:15 34.41235 35.13275 10378 ft 317 kts 140°
2026-05-05 12:15 34.39690 35.15105 10286 ft 303 kts 140°
2026-05-05 12:16 34.38209 35.16852 10200 ft 291 kts 140°
2026-05-05 12:16 34.36775 35.18537 10106 ft 284 kts 141°
2026-05-05 12:16 34.35370 35.20182 10039 ft 280 kts 141°
2026-05-05 12:16 34.33971 35.21817 9793 ft 280 kts 141°
2026-05-05 12:17 34.32567 35.23455 9487 ft 279 kts 141°
2026-05-05 12:17 34.31189 35.25065 9189 ft 278 kts 141°
2026-05-05 12:17 34.29784 35.26710 8908 ft 276 kts 141°
2026-05-05 12:17 34.28424 35.28301 8635 ft 274 kts 141°
2026-05-05 12:18 34.27056 35.29900 8359 ft 272 kts 141°
2026-05-05 12:18 34.25694 35.31489 8088 ft 271 kts 141°
2026-05-05 12:18 34.24336 35.33072 7789 ft 270 kts 141°
2026-05-05 12:18 34.22980 35.34653 7507 ft 268 kts 141°
2026-05-05 12:19 34.21655 35.36197 7235 ft 268 kts 141°
2026-05-05 12:19 34.20311 35.37762 6951 ft 268 kts 140°
2026-05-05 12:19 34.18968 35.39326 6669 ft 267 kts 140°
2026-05-05 12:19 34.17626 35.40893 6390 ft 267 kts 141°
2026-05-05 12:20 34.16295 35.42445 6112 ft 266 kts 141°
2026-05-05 12:20 34.14960 35.43996 5830 ft 265 kts 141°
2026-05-05 12:20 34.13629 35.45542 5565 ft 265 kts 140°
2026-05-05 12:20 34.12750 35.46562 5383 ft 265 kts 140°
2026-05-05 12:21 34.10975 35.48623 5016 ft 264 kts 140°
2026-05-05 12:21 34.10097 35.49642 4833 ft 264 kts 140°
2026-05-05 12:21 34.08770 35.51192 4539 ft 263 kts 141°
2026-05-05 12:21 34.07451 35.52719 4289 ft 261 kts 140°
2026-05-05 12:22 34.06043 35.54080 3974 ft 257 kts 157°
2026-05-05 12:22 34.04408 35.54657 3904 ft 237 kts 178°
2026-05-05 12:22 34.02817 35.54825 3903 ft 222 kts 181°
2026-05-05 12:22 34.01340 35.54950 3902 ft 207 kts 182°
2026-05-05 12:23 33.99963 35.55072 3900 ft 190 kts 182°
2026-05-05 12:23 33.98688 35.55189 3757 ft 176 kts 182°
2026-05-05 12:23 33.97522 35.55296 3601 ft 160 kts 180°
2026-05-05 12:23 33.96452 35.55401 3423 ft 152 kts 180°
2026-05-05 12:24 33.95406 35.55512 3209 ft 148 kts 181°
2026-05-05 12:24 33.94382 35.55619 3035 ft 147 kts 182°
2026-05-05 12:24 33.93356 35.55718 2842 ft 148 kts 182°
2026-05-05 12:24 33.92363 35.55691 2682 ft 142 kts 197°
2026-05-05 12:25 33.91432 35.55322 2497 ft 142 kts 207°
2026-05-05 12:25 33.90522 35.54860 2301 ft 142 kts 208°
2026-05-05 12:25 33.89610 35.54382 2099 ft 144 kts 207°
2026-05-05 12:25 33.88699 35.53923 1907 ft 141 kts 210°
2026-05-05 12:26 33.87801 35.53461 1722 ft 139 kts 210°
2026-05-05 12:26 33.86912 35.52997 1518 ft 140 kts 209°
2026-05-05 12:26 33.85999 35.52520 1362 ft 145 kts 207°
2026-05-05 12:26 33.85069 35.52049 1166 ft 143 kts 206°
2026-05-05 12:27 33.84181 35.51543 887 ft 139 kts 216°
2026-05-05 12:27 33.83377 35.50889 531 ft 140 kts 218°
2026-05-05 12:27 33.82567 35.50222 217 ft 140 kts 214°
2026-05-05 12:27 33.81774 35.49610 56 ft 119 kts 212°
2026-05-05 12:28 33.81273 35.49212 47 ft 54 kts 213°
2026-05-05 12:28 33.81052 35.49037 43 ft 21 kts 213°
2026-05-05 12:28 33.80987 35.48923 42 ft 19 kts 289°
2026-05-05 12:28 33.81007 35.48893 43 ft 0 kts 326°
2026-05-05 12:29 33.81073 35.48879 44 ft 26 kts
2026-05-05 12:29 33.81255 35.48873 46 ft 27 kts
2026-05-05 12:29 33.81417 35.48959 48 ft 3 kts 38°
2026-05-05 12:31 33.81417 35.48960 48 ft 0 kts 38°
2026-05-05 12:31 33.81426 35.48968 48 ft 3 kts 36°
2026-05-05 12:31 33.81449 35.48988 48 ft 5 kts 36°
2026-05-05 12:31 33.81486 35.49019 49 ft 8 kts 35°
2026-05-05 12:32 33.81544 35.49058 50 ft 11 kts 19°
2026-05-05 12:32 33.81630 35.49070 51 ft 14 kts 359°
2026-05-05 12:32 33.81740 35.49064 51 ft 18 kts 356°
2026-05-05 12:32 33.81873 35.49054 52 ft 19 kts 356°
2026-05-05 12:33 33.81998 35.49045 52 ft 19 kts 356°
2026-05-05 12:33 33.82106 35.49036 53 ft 12 kts 356°
2026-05-05 12:33 33.82189 35.49030 53 ft 12 kts 356°
2026-05-05 12:33 33.82286 35.49011 54 ft 16 kts 352°
2026-05-05 12:34 33.82400 35.48998 53 ft 16 kts 355°
2026-05-05 12:34 33.82469 35.48991 53 ft 5 kts 355°
2026-05-05 12:34 33.82508 35.48987 54 ft 7 kts 355°
2026-05-05 12:34 33.82555 35.48987 55 ft 6 kts 26°
2026-05-05 12:35 33.82575 35.49021 55 ft 4 kts 66°
2026-05-05 12:35 33.82583 35.49072 55 ft 7 kts 94°
2026-05-05 12:35 33.82578 35.49099 55 ft 1 kts 104°
2026-05-05 12:35 33.82577 35.49102 55 ft 0 kts 105°